OneWeb SL0356

operational
NORAD ID: 49283 Int'l Des: 2021-090 Owner: ONEWEBN Country: UK Constellation: oneweb
LEOCIRCULARPOLARONEWEB_TYPE

OneWeb SL0356について

説明を読み込み中...

リアルタイム位置

3D地球を読み込み中...

次回通過

高度履歴

Altitude vs Time

uPlot chart will show altitude changes over time

軌道要素

1 49283U 21090E 25257.92600727 .00000077 00000-0 15725-3 0 9999
2 49283 87.9270 329.3158 0002512 81.6866 278.4553 13.20770787193499
Epoch: Sep 14, 2025 • Age: 17 hours

現在のステータス

高度 1190.8 km
速度 7.26 km/s
衛星直下点 62.86°N, 114.82°E
打ち上げ日 Oct 14, 2021
運用期間 3.9 years
タイプ internet

技術仕様

分類 Payload
質量 148.00 kg
乾燥質量 140.00 kg
総質量 148.00 kg
長さ 1.30 m
直径 1.00 m
スパン 5.00 m
形状 Trapezoid+2 pan
製造者 ONEWUS
バスタイプ ARROW
フェーズステータス In Orbit
所有者/国 ONEWEBN/UK

大規模コンステレーション

Loading constellations...